KE2BQW Weather Reports


time (UTC)temp
C
wind
direction
speed
KPH
gust
KPH
rain 1hr
cm
rain 24hr
cm
rain mn
cm
humidity
%
barometer
mb
20260906210519 20 0.0 0.0 0.00 0.00 0.00 67 1019.7
20260906205519 20 0.0 0.0 0.00 0.00 0.00 67 1019.8
20260906204518 20 0.0 0.0 0.00 0.00 0.00 66 1019.7
20260906203542 21 0.0 0.0 0.00 0.00 0.00 65 1019.6
20260906202519 20 0.0 0.0 0.00 0.00 0.00 66 1019.6
20260906201519 20 0.0 0.0 0.00 0.00 0.00 65 1019.6
20260906200520 21 0.0 0.0 0.00 0.00 0.00 66 1019.6
20260906195542 21 0.0 0.0 0.00 0.00 0.00 66 1019.6
20260906194542 21 0.0 0.0 0.00 0.00 0.00 68 1019.7
20260906193520 21 0.0 0.0 0.00 0.00 0.00 68 1019.6
20260906192520 21 0.0 0.0 0.00 0.00 0.00 68 1019.6
20260906191542 21 0.0 0.0 0.00 0.00 0.00 68 1019.6
20260906190519 21 0.0 0.0 0.00 0.00 0.00 69 1019.5
20260906185519 21 0.0 0.0 0.00 0.00 0.00 69 1019.5
20260906184519 21 0.0 0.0 0.00 0.00 0.00 68 1019.5
20260906183520 21 0.0 0.0 0.00 0.00 0.00 69 1019.6
20260906182543 21 0.0 0.0 0.00 0.00 0.00 70 1019.6
20260906181544 21 0.0 0.0 0.00 0.00 0.00 71 1019.6
20260906180519 21 0.0 0.0 0.00 0.00 0.00 71 1019.5
20260906175519 21 0.0 0.0 0.00 0.00 0.00 73 1019.5
20260906174520 20 0.0 0.0 0.00 0.00 0.00 74 1019.7
20260906173520 20 0.0 0.0 0.00 0.00 0.00 72 1019.7
20260906172519 21 0.0 0.0 0.00 0.00 0.00 73 1019.7
20260906171518 20 0.0 0.0 0.00 0.00 0.00 74 1019.6
20260906170520 21 0.0 0.0 0.00 0.00 0.00 72 1019.6
20260906165519 21 0.0 0.0 0.00 0.00 0.00 72 1019.6
20260906164519 21 0.0 0.0 0.00 0.00 0.00 69 1019.5
20260906163520 22 0.0 0.0 0.00 0.00 0.00 71 1019.5
20260906162519 21 0.0 0.0 0.00 0.00 0.00 74 1019.5
20260906161546 21 0.0 0.0 0.00 0.00 0.00 75 1019.6
20260906160520 20 0.0 0.0 0.00 0.00 0.00 75 1019.6
20260906155519 21 0.0 0.0 0.00 0.00 0.00 75 1019.6
20260906154523 21 0.0 0.0 0.00 0.00 0.00 75 1019.6
20260906153519 21 0.0 0.0 0.00 0.00 0.00 76 1019.3
20260906152523 21 0.0 0.0 0.00 0.00 0.00 77 1019.3
20260906151520 21 0.0 0.0 0.00 0.00 0.00 80 1019.3
20260906150518 21 0.0 0.0 0.00 0.00 0.00 84 1019.3
20260906145519 20 0.0 0.0 0.00 0.00 0.00 85 1019.3
20260906144519 20 0.0 0.0 0.00 0.00 0.00 86 1019.4
20260906143520 20 0.0 0.0 0.00 0.00 0.00 86 1019.4
20260906142520 20 0.0 0.0 0.00 0.00 0.00 86 1019.4
20260906141520 20 0.0 0.0 0.00 0.00 0.00 87 1019.2
20260906140520 20 0.0 0.0 0.00 0.00 0.00 88 1019.0
20260906135519 21 0.0 0.0 0.00 0.00 0.00 93 1018.8
20260906134519 20 0.0 0.0 0.00 0.00 0.00 94 1018.9
20260906133519 19 0.0 0.0 0.00 0.00 0.00 94 1018.9
20260906132519 19 0.0 0.0 0.00 0.00 0.00 96 1018.9
20260906131542 20 0.0 0.0 0.00 0.00 0.00 98 1018.7
20260906130519 20 0.0 0.0 0.00 0.00 0.00 100 1018.8
20260906125518 20 0.0 0.0 0.00 0.00 0.00 1018.7
20260906124520 20 0.0 0.0 0.00 0.00 0.00 1018.6
20260906123519 20 0.0 0.0 0.00 0.00 0.00 1018.6
20260906122519 20 0.0 0.0 0.00 0.00 0.00 1018.5
20260906121520 19 0.0 0.0 0.00 0.00 0.00 1018.5
20260906120543 18 0.0 0.0 0.00 0.00 0.00 1018.4
20260906115520 17 0.0 0.0 0.00 0.00 0.00 1018.2
20260906114542 17 0.0 0.0 0.00 0.00 0.00 1018.0
20260906113520 16 0.0 0.0 0.00 0.00 0.00 1018.0
20260906112519 16 0.0 0.0 0.00 0.00 0.00 1018.0
20260906111520 16 0.0 0.0 0.00 0.00 0.00 1017.8
20260906110519 16 0.0 0.0 0.00 0.00 0.00 1017.7
20260906105518 16 0.0 0.0 0.00 0.00 0.00 1017.6
20260906104518 16 0.0 0.0 0.00 0.00 0.00 1017.6
20260906103519 16 0.0 0.0 0.00 0.00 0.00 1017.5
20260906102518 16 0.0 0.0 0.00 0.00 0.00 1017.3
20260906101542 16 0.0 0.0 0.00 0.00 0.00 1017.2
20260906100543 16 0.0 0.0 0.00 0.00 0.00 1017.1
20260906095520 16 0.0 0.0 0.00 0.00 0.00 1016.9
20260906094604 16 0.0 0.0 0.00 0.00 0.00 1016.9
20260906093520 16 0.0 0.0 0.00 0.00 0.00 1016.8
20260906092520 16 0.0 0.0 0.00 0.00 0.00 1016.8
20260906091520 16 0.0 0.0 0.00 0.00 0.00 1016.6
20260906090522 16 0.0 0.0 0.00 0.00 0.00 1016.5
20260906085543 16 0.0 0.0 0.00 0.00 0.00 1016.3
20260906084520 16 0.0 0.0 0.00 0.00 0.00 1016.2
20260906083519 16 0.0 0.0 0.00 0.00 0.00 1016.1
20260906082520 16 0.0 0.0 0.00 0.00 0.00 1016.1
20260906081519 16 0.0 0.0 0.00 0.00 0.00 1016.1
20260906080520 16 0.0 0.0 0.00 0.00 0.00 1016.0
20260906075519 16 0.0 0.0 0.00 0.00 0.00 1016.1
20260906074605 16 0.0 0.0 0.00 0.00 0.00 1016.0
20260906073521 17 0.0 0.0 0.00 0.00 0.00 1015.8
20260906072520 17 0.0 0.0 0.00 0.00 0.00 1015.8
20260906071519 17 0.0 0.0 0.00 0.00 0.00 1015.9
20260906070542 17 0.0 0.0 0.00 0.00 0.00 1015.9
20260906065518 17 0.0 0.0 0.00 0.00 0.00 1015.9
20260906064520 17 0.0 0.0 0.00 0.00 0.00 100 1015.9
20260906063519 17 0.0 0.0 0.00 0.00 0.00 100 1016.0
20260906062518 17 0.0 0.0 0.00 0.00 0.00 100 1015.9
20260906061519 17 0.0 0.0 0.00 0.00 0.00 99 1015.9
20260906060519 17 0.0 0.0 0.00 0.00 0.00 98 1015.9
20260906055519 17 0.0 0.0 0.00 0.00 0.00 98 1015.9
20260906054520 17 0.0 0.0 0.00 0.00 0.00 98 1016.0
20260906053519 17 0.0 0.0 0.00 0.00 0.00 98 1016.0
20260906052519 18 0.0 0.0 0.00 0.00 0.00 98 1015.9
20260906051519 17 0.0 0.0 0.00 0.00 0.00 98 1015.9
20260906050520 17 0.0 0.0 0.00 0.00 0.00 97 1016.0
20260906045519 17 0.0 0.0 0.00 0.00 0.00 96 1015.9
20260906044519 17 0.0 0.0 0.00 0.00 0.00 95 1015.8
20260906043520 17 0.0 0.0 0.00 0.00 0.00 95 1015.8
20260906042520 17 0.0 0.0 0.00 0.00 0.00 94 1015.8
20260906041518 17 0.0 0.0 0.00 0.00 0.00 94 1015.8
20260906040520 17 0.0 0.0 0.00 0.00 0.00 93 1015.7
20260906035518 17 0.0 0.0 0.00 0.00 0.00 92 1015.8
20260906034520 17 0.0 0.0 0.00 0.00 0.00 91 1015.6
20260906033520 17 0.0 0.0 0.00 0.00 0.00 90 1015.6
20260906032543 18 0.0 0.0 0.00 0.00 0.00 90 1015.6
20260906031519 18 0.0 0.0 0.00 0.00 0.00 89 1015.6
20260906030520 18 0.0 0.0 0.00 0.00 0.00 88 1015.5
20260906025520 18 0.0 0.0 0.00 0.00 0.00 88 1015.5
20260906024543 18 0.0 0.0 0.00 0.00 0.00 87 1015.4
20260906023521 18 0.0 0.0 0.00 0.00 0.00 86 1015.4
20260906022519 18 0.0 0.0 0.00 0.00 0.00 86 1015.4
20260906021519 18 0.0 0.0 0.00 0.00 0.00 85 1015.3
20260906020521 18 0.0 0.0 0.00 0.00 0.00 84 1015.2
20260906015520 18 0.0 0.0 0.00 0.00 0.00 84 1015.3
20260906014519 19 0.0 0.0 0.00 0.00 0.00 83 1015.2
20260906013520 19 0.0 0.0 0.00 0.00 0.00 82 1015.1
20260906012543 19 0.0 0.0 0.00 0.00 0.00 82 1015.1
20260906011520 20 0.0 0.0 0.00 0.00 0.00 81 1015.2
20260906010518 20 0.0 0.0 0.00 0.00 0.00 81 1015.2
20260906005521 20 0.0 0.0 0.00 0.00 0.00 81 1015.1
20260906004521 20 0.0 0.0 0.00 0.00 0.00 80 1015.0
20260906003520 20 0.0 0.0 0.00 0.00 0.00 80 1014.9
20260906002519 20 0.0 0.0 0.00 0.00 0.00 79 1014.8
20260906001521 20 0.0 0.0 0.00 0.00 0.00 78 1015.0
20260906000519 20 0.0 0.0 0.00 0.00 0.00 77 1015.0
20260905235520 20 0.0 0.0 0.00 0.00 0.00 77 1015.0
20260905234519 20 0.0 0.0 0.00 0.00 0.00 76 1015.0
20260905233520 21 0.0 0.0 0.00 0.00 0.00 76 1014.9
20260905232520 21 0.0 0.0 0.00 0.00 0.00 76 1015.1
20260905231518 21 0.0 0.0 0.00 0.00 0.00 75 1015.1
20260905230519 21 0.0 0.0 0.00 0.00 0.00 75 1015.0
20260905225543 21 0.0 0.0 0.00 0.00 0.00 75 1015.1
20260905224518 21 0.0 0.0 0.00 0.00 0.00 74 1015.1
20260905223519 21 0.0 0.0 0.00 0.00 0.00 74 1015.2
20260905222543 21 0.0 0.0 0.00 0.00 0.00 74 1015.0
20260905221521 22 0.0 0.0 0.00 0.00 0.00 74 1014.9
20260905220518 22 0.0 0.0 0.00 0.00 0.00 73 1014.8
20260905215543 22 0.0 0.0 0.00 0.00 0.00 72 1014.8
20260905214519 22 0.0 0.0 0.00 0.00 0.00 72 1014.7
20260905213520 22 0.0 0.0 0.00 0.00 0.00 72 1014.6
20260905212519 22 0.0 0.0 0.00 0.00 0.00 71 1014.6
20260905211518 22 0.0 0.0 0.00 0.00 0.00 72 1014.5